Weather History for MMMT - October, 2012

Change the Weather History Date:

Tuesday, October 23, 2012

  Actual Average Record
Temperature  
Mean Temperature 74 °F -  
Max Temperature 86 °F 80 °F 93 °F (2004)
Min Temperature 61 °F 69 °F 61 °F (2012)
Cooling Degree Days 8    
Growing Degree Days 24 (Base 50)    
Moisture  
Dew Point 68 °F    
Average Humidity 75    
Maximum Humidity 100    
Minimum Humidity 56    
Precipitation  
Precipitation 0.12 in - - ()
Sea Level Pressure  
Sea Level Pressure 29.88 in    
Wind  
Wind Speed 2 mph ()    
Max Wind Speed 7 mph    
Max Gust Speed -    
Visibility 7.9 miles    
Events      
Averages and records for this station are not official NWS values.
T = Trace of Precipitation, MM = Missing Value Source: Averaged Metar Reports

Daily Weather History Graph

Daily Weather History Graph

Search for Another Location

Airport or City:

Trip Planner

Search our weather history database for the weather conditions in past years. The results will help you decide how hot, cold, wet, or windy it might be!

Date:

Astronomy

Oct. 23, 2012 Rise Set
Actual Time 7:14 AM CDT 6:50 PM CDT
Civil Twilight 6:52 AM CDT 7:12 PM CDT
Nautical Twilight 6:26 AM CDT 7:38 PM CDT
Astronomical Twilight 6:01 AM CDT 8:03 PM CDT
Moon 2:50 PM CDT (10/23) 1:56 AM CDT (10/23)
Length of Visible Light 12h 20m
Length of Day
11h 35m
Waxing Gibbous, 67% of the Moon is Illuminated
Oct 23
Waxing Gibbous
Oct 29
Full
Nov 6
Last Quarter
Nov 13
New
Nov 20
First Quarter

Hourly Weather History & Observations

Time (CDT) Temp. Heat Index Dew Point Humidity Pressure Visibility Wind Dir Wind Speed Gust Speed Precip Events Conditions
1:00 AM 64 °F - 64 °F 100% 29.96 in - NW 2.2 mph - -  
4:00 AM 62 °F - 62 °F 100% 29.92 in - Calm Calm - -  
5:45 AM 75.2 °F - 71.6 °F 89% 29.80 in 6.0 mi Calm Calm - N/A   Overcast
6:48 AM 75.2 °F - 69.8 °F 83% 30.02 in 8.0 mi Calm Calm - N/A   Partly Cloudy
7:00 AM 61 °F - 61 °F 100% 29.94 in - North 2.2 mph - -  
7:49 AM 75.2 °F - 69.8 °F 83% 29.81 in 8.0 mi Calm Calm - N/A   Scattered Clouds
8:45 AM 75.2 °F - 69.8 °F 83% 29.82 in 8.0 mi Calm Calm - N/A   Scattered Clouds
9:55 AM - - - N/A% 29.84 in 8.0 mi Calm Calm - N/A   Overcast
9:57 AM - - - N/A% 29.84 in 8.0 mi Calm Calm - N/A   Overcast
10:00 AM 71 °F - 63 °F 68% 29.90 in - SSE 2.2 mph - -  
10:52 AM 78.8 °F - 69.8 °F 74% 30.08 in 8.0 mi North 6.9 mph - N/A   Overcast
11:50 AM 78.8 °F - 69.8 °F 74% 29.84 in 8.0 mi North 6.9 mph - N/A   Overcast
12:54 PM 86.0 °F 90.4 °F 69.8 °F 58% 29.81 in 8.0 mi North 6.9 mph - N/A   Scattered Clouds
1:00 PM 75 °F - 62 °F 56% 29.84 in - SE 4.5 mph - -  
1:51 PM 84.2 °F 88.4 °F 69.8 °F 62% 30.01 in 8.0 mi North 6.9 mph - N/A   Scattered Clouds
2:50 PM 84.2 °F 88.4 °F 69.8 °F 62% 29.76 in 8.0 mi North 6.9 mph - N/A   Scattered Clouds
3:47 PM 84.2 °F 88.4 °F 69.8 °F 62% 29.96 in 8.0 mi North 6.9 mph - N/A   Partly Cloudy
4:00 PM 74 °F - 64 °F 63% 29.81 in - NNE 2.2 mph - -  
5:08 PM 84.2 °F 88.4 °F 69.8 °F 62% 29.75 in 8.0 mi North 6.9 mph - N/A   Clear
5:46 PM 82.4 °F 86.3 °F 69.8 °F 66% 29.75 in 8.0 mi North 6.9 mph - N/A   Clear
6:49 PM 82.4 °F 86.3 °F 69.8 °F 66% 30.00 in 8.0 mi North 6.9 mph - N/A   Scattered Clouds
7:00 PM 69 °F - 65 °F 84% 29.86 in - SE 4.5 mph - -